Satellite: NOAA-14 Catalog number: 23455 Epoch time: 08346.83509382 Element set: 425 Inclination: 098.9300 deg RA of node: 059.0208 deg Eccentricity: 0.0009482 Arg of perigee: 006.7283 deg Mean anomaly: 353.4500 deg Mean motion: 14.13753270 rev/day Decay rate: -1.0e-07 rev/day^2 Epoch rev: 71954 Checksum: 288
Satellite: NOAA-15 Catalog number: 25338 Epoch time: 08346.82605544 Element set: 731 Inclination: 098.5699 deg RA of node: 334.3090 deg Eccentricity: 0.0009801 Arg of perigee: 242.5643 deg Mean anomaly: 117.5018 deg Mean motion: 14.24736576 rev/day Decay rate: 8.7e-07 rev/day^2 Epoch rev: 55010 Checksum: 310
Satellite: RESURS Catalog number: 25394 Epoch time: 08346.50649902 Element set: 91 Inclination: 098.3627 deg RA of node: 022.1771 deg Eccentricity: 0.0002405 Arg of perigee: 048.6541 deg Mean anomaly: 311.4846 deg Mean motion: 14.24176414 rev/day Decay rate: -2.9e-07 rev/day^2 Epoch rev: 54168 Checksum: 290
Satellite: FENGYUN1 Catalog number: 25730 Epoch time: 08346.88256845 Element set: 635 Inclination: 098.7413 deg RA of node: 316.8125 deg Eccentricity: 0.0023005 Arg of perigee: 023.6599 deg Mean anomaly: 336.5623 deg Mean motion: 14.07899592 rev/day Decay rate: 7.77e-06 rev/day^2 Epoch rev: 49396 Checksum: 344
Satellite: OKEAN-0 Catalog number: 25860 Epoch time: 08346.07753664 Element set: 546 Inclination: 097.7665 deg RA of node: 328.9632 deg Eccentricity: 0.0001863 Arg of perigee: 064.7188 deg Mean anomaly: 295.4222 deg Mean motion: 14.73548540 rev/day Decay rate: 4.1e-07 rev/day^2 Epoch rev: 50544 Checksum: 321
Satellite: NOAA-16 Catalog number: 26536 Epoch time: 08346.86328638 Element set: 206 Inclination: 099.1708 deg RA of node: 340.0657 deg Eccentricity: 0.0011196 Arg of perigee: 087.4978 deg Mean anomaly: 272.7948 deg Mean motion: 14.12504479 rev/day Decay rate: 1.4e-07 rev/day^2 Epoch rev: 42385 Checksum: 336
Satellite: NOAA-17 Catalog number: 27453 Epoch time: 08346.82167275 Element set: 213 Inclination: 098.5134 deg RA of node: 046.1036 deg Eccentricity: 0.0011087 Arg of perigee: 313.6046 deg Mean anomaly: 046.4704 deg Mean motion: 14.24024752 rev/day Decay rate: 1.35e-06 rev/day^2 Epoch rev: 33608 Checksum: 279
Satellite: NOAA-18 Catalog number: 28654 Epoch time: 08346.80282212 Element set: 697 Inclination: 098.8879 deg RA of node: 285.6978 deg Eccentricity: 0.0014257 Arg of perigee: 169.2723 deg Mean anomaly: 190.9224 deg Mean motion: 14.11217461 rev/day Decay rate: 2.67e-06 rev/day^2 Epoch rev: 18352 Checksum: 344
/EX SB KEPS @ AMSAT $ORB08346.M Orbital Elements 08346.MISC
HR AMSAT ORBITAL ELEMENTS FOR MANNED AND MISCELLANEOUS SATELLITES FROM WA5QGD FORT WORTH,TX December 11, 2008 Send Subscribe/unsubscribe to KEPS at http://www.amsat.org/mailman/listinfo/keps BID: ORB08346.M TO ALL RADIO AMATEURS BT
Satellite: HUBBLE Catalog number: 20580 Epoch time: 08346.14780929 Element set: 281 Inclination: 028.4706 deg RA of node: 248.9979 deg Eccentricity: 0.0003862 Arg of perigee: 106.4277 deg Mean anomaly: 253.6739 deg Mean motion: 15.00437387 rev/day Decay rate: 3.73e-06 rev/day^2 Epoch rev: 82158 Checksum: 327
Satellite: PO-34 Catalog number: 25520 Epoch time: 08346.46890278 Element set: 139 Inclination: 028.4594 deg RA of node: 071.8284 deg Eccentricity: 0.0004885 Arg of perigee: 061.0933 deg Mean anomaly: 299.0144 deg Mean motion: 15.17269357 rev/day Decay rate: 3.34e-06 rev/day^2 Epoch rev: 56011 Checksum: 316
Satellite: ISS Catalog number: 25544 Epoch time: 08346.68796588 Element set: 834 Inclination: 051.6405 deg RA of node: 186.6824 deg Eccentricity: 0.0006597 Arg of perigee: 084.4519 deg Mean anomaly: 275.7769 deg Mean motion: 15.71820326 rev/day Decay rate: 4.491e-05 rev/day^2 Epoch rev: 57646 Checksum: 359
Satellite: CO-58 Catalog number: 28895 Epoch time: 08343.71249886 Element set: 187 Inclination: 098.0789 deg RA of node: 233.4047 deg Eccentricity: 0.0017045 Arg of perigee: 221.9612 deg Mean anomaly: 138.0262 deg Mean motion: 14.59722200 rev/day Decay rate: 5.0e-07 rev/day^2 Epoch rev: 16594 Checksum: 323
Satellite: FALCON Catalog number: 30776 Epoch time: 08346.53098909 Element set: 457 Inclination: 035.4327 deg RA of node: 157.8456 deg Eccentricity: 0.0000910 Arg of perigee: 022.4204 deg Mean anomaly: 337.6555 deg Mean motion: 15.03122954 rev/day Decay rate: 3.48e-06 rev/day^2 Epoch rev: 9684 Checksum: 304
Satellite: MAST Catalog number: 31126 Epoch time: 08344.10218530 Element set: 477 Inclination: 098.0188 deg RA of node: 041.3413 deg Eccentricity: 0.0095429 Arg of perigee: 149.2951 deg Mean anomaly: 211.3866 deg Mean motion: 14.53463550 rev/day Decay rate: 9.0e-08 rev/day^2 Epoch rev: 8742 Checksum: 284
Satellite: CAPE1 Catalog number: 31130 Epoch time: 08346.15748822 Element set: 474 Inclination: 098.0198 deg RA of node: 041.9162 deg Eccentricity: 0.0103269 Arg of perigee: 146.9731 deg Mean anomaly: 213.7971 deg Mean motion: 14.52014577 rev/day Decay rate: 7.0e-08 rev/day^2 Epoch rev: 8740 Checksum: 295
Satellite: COMPASS Catalog number: 32787 Epoch time: 08345.87506084 Element set: 223 Inclination: 097.9691 deg RA of node: 045.0535 deg Eccentricity: 0.0014783 Arg of perigee: 285.9516 deg Mean anomaly: 074.0048 deg Mean motion: 14.81512624 rev/day Decay rate: 3.54e-06 rev/day^2 Epoch rev: 3356 Checksum: 309
Satellite: AAUSAT2 Catalog number: 32788 Epoch time: 08346.46596976 Element set: 224 Inclination: 097.9693 deg RA of node: 045.6718 deg Eccentricity: 0.0014253 Arg of perigee: 284.3005 deg Mean anomaly: 075.6631 deg Mean motion: 14.81628172 rev/day Decay rate: 4.33e-06 rev/day^2 Epoch rev: 3365 Checksum: 326
Satellite: DO-64 Catalog number: 32789 Epoch time: 08346.88735188 Element set: 235 Inclination: 097.9729 deg RA of node: 046.1546 deg Eccentricity: 0.0014730 Arg of perigee: 281.4671 deg Mean anomaly: 078.4884 deg Mean motion: 14.81558314 rev/day Decay rate: 6.06e-06 rev/day^2 Epoch rev: 3371 Checksum: 346
Satellite: CO-66 Catalog number: 32791 Epoch time: 08346.43760679 Element set: 216 Inclination: 097.9720 deg RA of node: 045.6389 deg Eccentricity: 0.0015111 Arg of perigee: 281.3730 deg Mean anomaly: 078.5788 deg Mean motion: 14.81358398 rev/day Decay rate: 2.70e-06 rev/day^2 Epoch rev: 3361 Checksum: 333
Satellite: RS-30 Catalog number: 32953 Epoch time: 08346.32668995 Element set: 180 Inclination: 082.5034 deg RA of node: 013.4340 deg Eccentricity: 0.0018095 Arg of perigee: 225.9703 deg Mean anomaly: 133.9882 deg Mean motion: 12.42998674 rev/day Decay rate: 1.0e-07 rev/day^2 Epoch rev: 2505 Checksum: 301
/EX